Regional Weather Roundup
Issued by NWS

Home | Current Version | Previous Version | Graphics & Text | Print | Product List | Glossary On
Versions: 1 2 3 4 5 6 7 8 9 10 11 12 13 14 15 16 17 18 19 20 21 22 23 24 25 26 27 28 29 30 31 32 33 34 35 36 37 38 39 40 41 42 43 44 45 46 47 48 49 50
000
ASUS43 KIND 020959
RWRIN

WEATHER ROUNDUP FOR INDIANA
NATIONAL WEATHER SERVICE INDIANAPOLIS IN
600 AM EDT TUE JUN 02 2015

NOTE: "FAIR" INDICATES FEW OR NO CLOUDS BELOW 12,000 FEET WITH NO
SIGNIFICANT WEATHER AND/OR OBSTRUCTIONS TO VISIBILITY.

* - STATION DOES NOT REPORT WEATHER SUCH AS PRECIPITATION OR FOG.

+ - STATION NOT QUALITY CONTROLLED BY THE NATIONAL WEATHER SERVICE.
    USE DATA WITH CAUTION...ESPECIALLY DEWPOINT AND RELATIVE
    HUMIDITY OBSERVATIONS.

INZ001>003-010>013-019-020-021100-
NORTHWEST INDIANA

CITY           SKY/WX    TMP DP  RH WIND       PRES   REMARKS
GARY /AIRPORT/ CLEAR     43  41  93 CALM      30.19S
RENSSELAER +   CLEAR     45  45 100 N3        30.18S

$$

LMZ046-743>745-021100-
SOUTHERN LAKE MICHIGAN

STATION/POSITION TIME  TEMP    WIND        PRES    WAVE
                       AIR SEA DIR/SP/G            HT
                 (UTC) (F)     (DEG/KT/KT) (MB)    (FT)
BURNS HARBOR     0900          180/  2/  4 1022.7R
MICHIGAN CITY    0900   47     140/  2/  3   N/A
5NW MICH CITY    0900   51 55  260/  2/  2   N/A     2

$$

INZ004-005-014>016-021>024-021100-
NORTH CENTRAL INDIANA

CITY           SKY/WX    TMP DP  RH WIND       PRES   REMARKS
GOSHEN         CLEAR     44  43  96 CALM      30.19S FOG
PERU/GRISSOM   CLEAR     46  45  95 N3        30.15S
SOUTH BEND     CLEAR     44  41  89 CALM      30.19F

$$

INZ006>009-017-018-025>027-021100-
NORTHEAST INDIANA

CITY           SKY/WX    TMP DP  RH WIND       PRES   REMARKS
ANGOLA *+      CLEAR     43  25  49 CALM      30.19R
FORT WAYNE     PTCLDY    44  43  96 CALM      30.18R

$$

INZ028-029-035-036-043>045-051>053-021100-
WEST CENTRAL INDIANA

CITY           SKY/WX    TMP DP  RH WIND       PRES   REMARKS
CRAWFORDSVL +  CLEAR     46  42  85 N3        30.15S
GREENCASTLE +  CLEAR     46  43  87 N3        30.15R
LAFAYETTE      CLEAR     47  45  93 NE5       30.17R
TERRE HAUTE    CLOUDY    52  50  93 N6        30.14R

$$

INZ030>032-037>040-046>048-054>057-064-065-021100-
CENTRAL INDIANA

CITY           SKY/WX    TMP DP  RH WIND       PRES   REMARKS
GREENWOOD *+   CLEAR     48  45  87 NE3       30.15R
INDIANAPOLIS   PTCLDY    50  45  83 NE8       30.12S
-EAGLE CREEK   CLEAR     49  46  90 NE3       30.14R
KOKOMO *+      CLEAR     46  45  93 NE6       30.16S
MT COMFORT *+  CLEAR     46 N/A N/A NE3       30.14S
SHELBYVILLE    CLEAR     50  46  86 NE5       30.13R

$$

INZ033-034-041-042-049-050-058-059-021100-
EAST CENTRAL INDIANA

CITY           SKY/WX    TMP DP  RH WIND       PRES   REMARKS
MUNCIE         CLEAR     48  45  89 NE3       30.15R

$$

INZ060-061-067>069-081>083-085>088-021100-
SOUTHWEST INDIANA

CITY           SKY/WX    TMP DP  RH WIND       PRES   REMARKS
EVANSVILLE     CLOUDY    59  55  87 NE5       30.11R
HUNTINGBURG *+ CLOUDY    55  54  94 NE6       30.11R

$$

INZ062-063-066-070>080-084-089>092-021100-
SOUTH CENTRAL AND SOUTHEAST INDIANA

CITY           SKY/WX    TMP DP  RH WIND       PRES   REMARKS
BLOOMINGTON    CLOUDY    54  50  86 E3        30.12R
MADISON *+     CLOUDY    54  48  82 NE3       30.13S
SEYMOUR +      CLOUDY    55  50  82 NE6       30.12R

$$



USA.gov is the U.S. government's official web portal to all federal, state and local government web resources and services.